Flag for Estonia Weather past 2 weeks in Tallinn, Estonia

Now
37 °F

Clear.


Feels Like: 28 °F
Forecast: 36 / 45 °F
Wind: 17 mph from Southeast

Location: Tallinn

Current Time: Mar 26, 2015 at 9:59:39 PM

Latest Report: Mar 26, 2015 at 9:20 PM


Visibility: 10 mi

Pressure: 30.09 "Hg

Humidity: 48%

Dew point: 19 °F

Location of TallinnLocation

Historic Weather in Tallinn — Graph

°F

Tallinn temperature yesterday

Maximum temperature yesterday: 36 °F (at 12:20 AM)
Minimum temperature yesterday: 27 °F (at 11:20 PM)
Average temperature yesterday: 32 °F

Past Weeks' High & Low Weather Summary

 TemperatureHumidityPressure
High59 °F (Mar 18, 2:50 PM)100% (Mar 20, 10:50 PM)31.04 "Hg (Mar 20, 10:50 PM)
Low21 °F (Mar 26, 5:20 AM)14% (Mar 18, 3:20 PM)29.36 "Hg (Mar 24, 4:50 AM)
Average36 °F64%30.37 "Hg
* Reported Mar 11 8:20 PM — Mar 26 8:50 PM, Tallinn, Weather by CustomWeather, © 2015

Note: Actual official high and low records may vary slightly from our data, if they occured in-between our weather recording intervals... More about our weather records

Advertising

Tallinn weather history for previous 24 hours

 ConditionsComfort  
Time TempWeatherWind HumidityBarometerVisibility
8:50 PM
Thu, Mar 26
37 °FClear.17 mph48%30.09 "Hg10 mi
8:20 PM37 °FClear.17 mph45%30.09 "Hg10 mi
7:50 PM37 °FClear.18 mph45%30.09 "Hg10 mi
7:20 PM37 °FClear.20 mph45%30.12 "Hg10 mi
6:50 PM37 °FClear.20 mph45%30.12 "Hg10 mi
6:20 PM39 °FSunny.20 mph42%30.12 "Hg10 mi
5:50 PM39 °FSunny.17 mph45%30.12 "Hg10 mi
5:20 PM39 °FSunny.18 mph42%30.12 "Hg10 mi
4:50 PM39 °FSunny.18 mph45%30.15 "Hg10 mi
4:20 PM39 °FSunny.21 mph45%30.15 "Hg10 mi
3:50 PM41 °FSunny.21 mph42%30.15 "Hg10 mi
3:20 PM39 °FSunny.21 mph45%30.18 "Hg10 mi
2:50 PM41 °FSunny.22 mph42%30.21 "Hg10 mi
2:20 PM41 °FSunny.20 mph42%30.21 "Hg10 mi
1:50 PM41 °FSunny.21 mph39%30.21 "Hg10 mi
1:20 PM39 °FSunny.18 mph42%30.24 "Hg10 mi
12:50 PM37 °FSunny.18 mph48%30.24 "Hg10 mi
12:20 PM37 °FSunny.16 mph45%30.24 "Hg10 mi
11:50 AM37 °FSunny.18 mph41%30.24 "Hg10 mi
11:20 AM36 °FSunny.16 mph44%30.24 "Hg10 mi
10:50 AM36 °FSunny.20 mph48%30.27 "Hg10 mi
10:20 AM34 °FSunny.16 mph51%30.27 "Hg10 mi
9:50 AM34 °FSunny.18 mph51%30.27 "Hg10 mi
9:20 AM32 °FSunny.17 mph55%30.24 "Hg10 mi
8:50 AM32 °FSunny.16 mph60%30.27 "Hg10 mi
8:20 AM30 °FSunny.15 mph64%30.27 "Hg10 mi
7:50 AM28 °FSunny.14 mph69%30.27 "Hg10 mi
7:20 AM27 °FSunny.14 mph74%30.27 "Hg10 mi
6:50 AM25 °FSunny.13 mph80%30.27 "Hg10 mi
6:20 AM23 °FSunny.13 mph80%30.27 "Hg10 mi
5:50 AM23 °FClear.12 mph80%30.27 "Hg10 mi
5:20 AM21 °FClear.12 mph80%30.27 "Hg10 mi
4:50 AM23 °FClear.10 mph74%30.27 "Hg10 mi
4:20 AM23 °FClear.10 mph74%30.27 "Hg10 mi
3:50 AM25 °FClear.10 mph69%30.27 "Hg10 mi
3:20 AM25 °FClear.10 mph69%30.27 "Hg10 mi
2:50 AM25 °FClear.10 mph74%30.27 "Hg10 mi
2:20 AM25 °FClear.10 mph74%30.27 "Hg10 mi
1:50 AM27 °FClear.12 mph69%30.24 "Hg10 mi
1:20 AM27 °FClear.10 mph74%30.27 "Hg10 mi
12:50 AM27 °FClear.10 mph74%30.27 "Hg10 mi
12:20 AM27 °FClear.10 mph74%30.24 "Hg10 mi
11:50 PM
Wed, Mar 25
27 °FClear.10 mph74%30.24 "Hg10 mi
11:20 PM27 °FClear.12 mph74%30.24 "Hg10 mi
10:50 PM28 °FClear.13 mph69%30.24 "Hg10 mi
10:20 PM28 °FClear.13 mph69%30.24 "Hg10 mi
9:50 PM28 °FClear.13 mph74%30.24 "Hg10 mi
9:20 PM28 °FClear.13 mph74%30.24 "Hg10 mi
Weather by CustomWeather, © 2015

See weather overviewHow to use our weather pages